User: anonymous   Login
Location: Irma
(52.9170°N, 111.2330°W)
Time: 00:12:53
(UTC-06:00)
Language:

Cosmos 2279 Rocket - Orbit

View from above orbital plane
View from above orbital plane
View from above satellite
View from above satellite

Ground track
Ground track

The orbit data is extracted from the following two-line orbital elements,

1 23093U 94024B   15182.76955709  .00000031  00000-0  16091-4 0  9996
2 23093 082.9485 287.2825 0009528 204.7577 155.3125 13.77670525532785
Epoch (UTC): 01 July 2015 18:28:09
Eccentricity: 0.0009528
inclination: 82.9485°
perigee height: 965 km
apogee height: 979 km
right ascension of ascending node: 287.2825°
argument of perigee: 204.7577°
revolutions per day: 13.77670525
mean anomaly at epoch: 155.3125°
orbit number at epoch: 53278

The dashed part of the orbit path shows where the satellite is in the earth's shadow,  

DLR